[[{"header":{"parameterUnit":"m.s-1","parameterCategory":1,"la1":30.2991,"la2":30.254,"lo1":-89.0895,"lo2":-89.0444,"dy":0.0017,"dx":0.0017,"nx":28,"ny":28,"refTime":"2024-10-16T21:00:00:Z","depth":0,"parameterNumber":2,"parameterNumberName":"U-component_of_WINDS"},"data":[0,0,0,0,0,0,0,0,0,0,0,0,0,0,0,0,0,0,0,0,0,0,0,0,0,0,0,0,0,0,0,0,0,0,0,0,0,0,0,0,0,0,0,0,0,0,0,0,0,0,0,0,0,0,0,0,0,0,-5.3155,-5.3155,0,-5.3166,-5.3166,-5.3166,-5.3054,-5.3051,-5.3048,-5.3045,-5.3058,-5.3061,-5.3064,0,0,0,0,0,0,0,0,0,0,0,0,0,-5.3042,-5.3045,-5.3155,-5.3155,-5.3156,-5.3166,-5.3166,-5.3166,-5.3054,-5.3051,-5.3047,-5.3043,-5.3057,-5.3061,-5.3065,0,0,0,0,0,0,0,0,0,0,0,0,0,-5.3076,-5.3046,-5.3155,-5.3101,-5.3096,-5.3166,-5.3166,-5.3166,-5.3055,-5.3051,-5.3046,-5.3042,-5.3056,-5.306,-5.3065,-5.3187,0,0,-5.308,-5.3082,0,0,0,0,0,0,0,0,-5.3074,-5.308,-5.3109,-5.3105,-5.31,-5.3104,-5.313,-5.3173,-5.3056,-5.3071,-5.3045,-5.3039,-5.3077,-5.308,-5.3092,-5.3188,-5.3188,-5.308,-5.3083,-5.3085,-5.3087,0,0,0,0,0,0,0,-5.3072,-5.3079,-5.3159,-5.311,-5.3104,-5.3077,-5.3077,-5.3138,-5.31,-5.3069,-5.3061,-5.3064,-5.3074,-5.3088,-5.3091,-5.3189,-5.308,-5.3084,-5.3087,-5.3089,-5.3387,-5.3391,0,0,0,0,0,0,-5.3077,-5.3078,-5.3159,-5.316,-5.3075,-5.3083,-5.3083,-5.3107,-5.3099,-5.3093,-5.3068,-5.3059,-5.3082,-5.3086,-5.3092,-5.3234,-5.3085,-5.309,-5.3093,-5.3382,-5.3388,-5.3393,0,0,0,0,0,0,-5.3075,-5.3085,-5.3159,-5.3117,-5.3124,-5.309,-5.3118,-5.311,-5.3123,-5.3098,-5.3091,-5.3089,-5.3078,-5.3085,-5.3164,-5.3233,-5.3092,-5.3096,-5.3376,-5.3384,-5.339,-5.3521,0,0,0,0,0,0,-5.3072,-5.3085,-5.313,-5.3119,-5.3127,-5.3231,-5.3123,-5.3113,-5.3132,-5.312,-5.3115,-5.311,-5.3075,-5.3158,-5.3169,-5.3237,-5.31,-5.3369,-5.3379,-5.3388,-5.351,-5.3532,-5.355,0,0,0,0,0,-5.3068,-5.3167,-5.3133,-5.3143,-5.3182,-5.3235,-5.3239,-5.3196,-5.3138,-5.3183,-5.3167,-5.3111,-5.3224,-5.3167,-5.3179,-5.3249,-5.3365,-5.3376,-5.3387,-5.3501,-5.3528,-5.355,0,0,0,0,0,0,-5.3188,-5.3164,-5.3126,-5.3224,-5.3232,-5.3216,-5.3272,-5.3225,-5.3251,-5.3239,-5.3185,-5.3185,-5.3274,-5.3269,-5.3206,-5.3368,-5.3284,-5.3299,-5.3367,-5.3392,-5.3411,-5.341,-5.3104,0,0,0,0,0,-5.3225,-5.3269,-5.3246,-5.3335,-5.3341,-5.3306,-5.3327,-5.3293,-5.33,-5.3303,-5.3292,-5.3302,-5.334,-5.3366,-5.3399,-5.351,-5.3507,-5.3564,-5.3584,-5.3601,-5.3614,-5.3673,-5.3698,-5.343,-5.343,-5.343,0,0,-5.3303,-5.3296,-5.3327,-5.3358,-5.3361,-5.3408,-5.331,-5.3364,-5.3398,-5.3311,-5.3385,-5.3379,-5.3386,-5.3482,-5.3524,-5.3481,-5.3687,-5.3615,-5.3629,-5.3632,-5.3687,-5.3712,-5.3735,-5.3438,-5.3436,-5.3435,0,0,-5.347,-5.3469,-5.3542,-5.3547,-5.3551,-5.3528,-5.3546,-5.3537,-5.3529,-5.3603,-5.3538,-5.358,-5.3646,-5.3654,-5.3667,-5.3839,-5.3788,-5.3851,-5.3956,-5.4014,-5.4035,-5.4053,-5.4115,-5.4137,-5.3864,-5.3865,-5.3865,0,-5.3566,-5.3634,-5.3586,-5.3644,-5.366,-5.3584,-5.3658,-5.3666,-5.3682,-5.3695,-5.3648,-5.373,-5.3729,-5.3826,-5.3868,-5.3881,-5.3901,-5.3851,-5.4036,-5.4054,-5.407,-5.4128,-5.4151,-5.3872,-5.3871,-5.387,-5.387,0,-5.3752,-5.3801,-5.386,-5.3877,-5.39,-5.3966,-5.3929,-5.3959,-5.3924,-5.3906,-5.3983,-5.398,-5.4012,-5.4032,-5.3999,-5.4126,-5.4099,-5.4045,-5.396,-5.4104,-5.4158,-5.418,-5.3883,-5.388,-5.3878,-5.3876,0,0,-5.3992,-5.3983,-5.4005,-5.4012,-5.4013,-5.405,-5.4114,-5.4144,-5.4171,-5.4185,-5.4238,-5.4297,-5.4247,-5.4261,-5.4228,-5.428,-5.4417,-5.4219,-5.4218,-5.4255,-5.4557,-5.4597,-5.4623,-5.4383,-5.4387,-5.4391,-5.4556,0,-5.4153,-5.426,-5.422,-5.4331,-5.4375,-5.4304,-5.436,-5.4368,-5.4354,-5.439,-5.4375,-5.4417,-5.4348,-5.4356,-5.4404,-5.439,-5.4476,-5.4377,-5.4432,-5.4435,-5.4432,-5.4651,-5.4694,-5.4849,-5.4577,-5.458,-5.4583,0,-5.4355,-5.4378,-5.4493,-5.4487,-5.4504,-5.4555,-5.458,-5.4616,-5.4624,-5.461,-5.4628,-5.4584,-5.4647,-5.4564,-5.4651,-5.4585,-5.4606,-5.4603,-5.4608,-5.461,-5.4517,-5.4659,-5.4898,-5.4921,-5.4615,-5.4613,-5.461,0,-5.4518,-5.4577,-5.4654,-5.4662,-5.4657,-5.4695,-5.4695,-5.4698,-5.4719,-5.4742,-5.4756,-5.4786,-5.4803,-5.4829,-5.4795,-5.4737,-5.4888,-5.4801,-5.4879,-5.488,-5.4912,-5.4911,-5.5157,-5.4928,-5.4927,-5.4927,-5.4926,0,-5.4702,-5.4775,-5.4727,-5.4774,-5.4854,-5.4808,-5.489,-5.4882,-5.4886,-5.4931,-5.4872,-5.4916,-5.487,-5.491,-5.4884,-5.4961,-5.4969,-5.4961,-5.4953,-5.4965,-5.4966,-5.4977,-5.4965,-5.4933,-5.4932,-5.493,-5.4929,0,-5.4897,-5.4867,-5.4946,-5.4935,-5.4935,-5.4994,-5.4986,-5.503,-5.5012,-5.507,-5.5081,-5.5054,-5.5098,-5.5068,-5.5112,-5.5095,-5.5196,-5.5173,-5.5193,-5.5187,-5.5266,-5.5259,-5.5527,-5.556,-5.531,-5.5313,-5.5315,0,-5.5015,-5.507,-5.5065,-5.5091,-5.5095,-5.5137,-5.5159,-5.5117,-5.5142,-5.5156,-5.5198,-5.5238,-5.5266,-5.5341,-5.5326,-5.5361,-5.5338,-5.543,-5.5343,-5.5354,-5.5339,-5.5336,-5.5341,-5.5447,-5.545,-5.5452,-5.5454,0,-5.5229,-5.5212,-5.5245,-5.5274,-5.5301,-5.5322,-5.5338,-5.5363,-5.5321,-5.5352,-5.5396,-5.5419,-5.5465,-5.5505,-5.5534,-5.5535,-5.5489,-5.5482,-5.5502,-5.5515,-5.5524,-5.552,-5.524,-5.5476,-5.5474,-5.5472,-5.5471,-5.547,-5.5388,-5.5434,-5.5438,-5.5477,-5.5485,-5.5502,-5.5543,-5.5531,-5.5567,-5.56,-5.5574,-5.5627,-5.5635,-5.5669,-5.5676,-5.5718,-5.5681,-5.5709,-5.5716,-5.5724,-5.5735,-5.5518,-5.5723,-5.5723,-5.5722,-5.5722,-5.5721,0,-5.5599,-5.5598,-5.5635,-5.5659,-5.5691,-5.5644,-5.566,-5.569,-5.5737,-5.5748,-5.5778,-5.583,-5.5869,-5.5858,-5.5894,-5.593,-5.5909,-5.594,-5.5937,-5.5938,-5.5766,-5.5745,-5.5956,-5.5956,-5.5956,-5.5956,-5.5956,-5.5956,-5.5711,-5.5786,-5.577,-5.5849,-5.5848,-5.5899,-5.5913,-5.5929,-5.5937,-5.5998,-5.603,-5.6022,-5.6025,-5.606,-5.6095,-5.609,-5.6106,-5.6145,-5.6133,-5.5973,-5.595,-5.5928,-5.5908,-5.6149,-5.6149,-5.6301,-5.6303,-5.6304]},{"header":{"parameterUnit":"m.s-1","parameterCategory":1,"la1":30.2991,"la2":30.254,"lo1":-89.0895,"lo2":-89.0444,"dy":0.0017,"dx":0.0017,"nx":28,"ny":28,"refTime":"2024-10-16T21:00:00:Z","depth":0,"parameterNumber":3,"parameterNumberName":"V-component_of_WINDS"},"data":[0,0,0,0,0,0,0,0,0,0,0,0,0,0,0,0,0,0,0,0,0,0,0,0,0,0,0,0,0,0,0,0,0,0,0,0,0,0,0,0,0,0,0,0,0,0,0,0,0,0,0,0,0,0,0,0,0,0,-0.366,-0.366,0,-0.3658,-0.3658,-0.3658,-0.3608,-0.3606,-0.3605,-0.3604,-0.3603,-0.3604,-0.3606,0,0,0,0,0,0,0,0,0,0,0,0,0,-0.3622,-0.3623,-0.366,-0.366,-0.366,-0.3658,-0.3658,-0.3658,-0.3608,-0.3606,-0.3605,-0.3603,-0.3603,-0.3604,-0.3606,0,0,0,0,0,0,0,0,0,0,0,0,0,-0.3631,-0.3623,-0.366,-0.3635,-0.3632,-0.3658,-0.3658,-0.3658,-0.3608,-0.3606,-0.3604,-0.3602,-0.3602,-0.3604,-0.3606,-0.3656,0,0,-0.3611,-0.3612,0,0,0,0,0,0,0,0,-0.3631,-0.3632,-0.3638,-0.3636,-0.3634,-0.3631,-0.3644,-0.3657,-0.3609,-0.3617,-0.3604,-0.3602,-0.3614,-0.3615,-0.3619,-0.3656,-0.3656,-0.3611,-0.3613,-0.3613,-0.3614,0,0,0,0,0,0,0,-0.363,-0.3632,-0.3659,-0.3639,-0.3636,-0.3624,-0.3623,-0.3646,-0.3627,-0.3617,-0.3613,-0.3613,-0.3613,-0.3617,-0.3618,-0.3656,-0.3611,-0.3613,-0.3614,-0.3615,-0.3732,-0.3734,0,0,0,0,0,0,-0.3633,-0.3632,-0.3659,-0.3659,-0.3627,-0.3626,-0.3625,-0.3634,-0.3626,-0.3623,-0.3615,-0.3611,-0.3615,-0.3616,-0.3618,-0.3675,-0.3613,-0.3615,-0.3616,-0.373,-0.3733,-0.3735,0,0,0,0,0,0,-0.3632,-0.3636,-0.3659,-0.3645,-0.3647,-0.3629,-0.3639,-0.3635,-0.3639,-0.3625,-0.3621,-0.3623,-0.3614,-0.3616,-0.3646,-0.3675,-0.3616,-0.3617,-0.3728,-0.3731,-0.3734,-0.3791,0,0,0,0,0,0,-0.3631,-0.3636,-0.3654,-0.3645,-0.3648,-0.3688,-0.3641,-0.3636,-0.3642,-0.3637,-0.3632,-0.3629,-0.3612,-0.3644,-0.3648,-0.3676,-0.3619,-0.3725,-0.3729,-0.3733,-0.3787,-0.3796,-0.3804,0,0,0,0,0,-0.363,-0.3671,-0.3656,-0.3659,-0.367,-0.3689,-0.3691,-0.367,-0.3645,-0.3664,-0.3654,-0.3629,-0.3671,-0.3648,-0.3652,-0.3681,-0.3723,-0.3728,-0.3733,-0.3783,-0.3794,-0.3803,0,0,0,0,0,0,-0.3685,-0.3669,-0.3652,-0.3691,-0.3692,-0.3681,-0.3704,-0.3682,-0.3691,-0.3685,-0.366,-0.3659,-0.3694,-0.369,-0.3665,-0.3728,-0.3693,-0.3698,-0.3729,-0.374,-0.3748,-0.3749,-0.362,0,0,0,0,0,-0.3701,-0.3717,-0.3703,-0.3739,-0.374,-0.3722,-0.373,-0.3713,-0.3713,-0.3713,-0.3706,-0.3707,-0.372,-0.373,-0.3741,-0.3785,-0.3784,-0.3807,-0.3816,-0.3823,-0.3828,-0.3851,-0.3862,-0.375,-0.375,-0.375,0,0,-0.3736,-0.373,-0.3742,-0.375,-0.3749,-0.3766,-0.3723,-0.3743,-0.3756,-0.3717,-0.3745,-0.374,-0.3739,-0.3777,-0.3793,-0.3775,-0.3859,-0.3829,-0.3835,-0.3836,-0.3857,-0.3868,-0.3877,-0.3753,-0.3753,-0.3752,0,0,-0.3808,-0.3805,-0.3834,-0.3833,-0.3831,-0.3818,-0.3825,-0.3817,-0.3812,-0.384,-0.381,-0.3825,-0.3849,-0.3849,-0.3853,-0.3924,-0.3901,-0.3928,-0.3973,-0.3995,-0.4004,-0.4012,-0.4037,-0.4046,-0.3933,-0.3934,-0.3934,0,-0.3852,-0.3876,-0.3852,-0.3874,-0.3879,-0.3843,-0.3872,-0.3873,-0.3875,-0.3879,-0.3858,-0.3886,-0.3884,-0.3921,-0.3938,-0.3942,-0.3949,-0.3929,-0.4005,-0.4012,-0.4019,-0.4043,-0.4052,-0.3937,-0.3936,-0.3936,-0.3936,0,-0.393,-0.3948,-0.3972,-0.3973,-0.3981,-0.4007,-0.3986,-0.3997,-0.3979,-0.3969,-0.3998,-0.3993,-0.4002,-0.4009,-0.3993,-0.4044,-0.4033,-0.4009,-0.3973,-0.4033,-0.4055,-0.4064,-0.3942,-0.394,-0.3939,-0.3939,0,0,-0.4038,-0.4025,-0.4034,-0.4034,-0.4028,-0.4042,-0.4066,-0.4074,-0.4083,-0.4086,-0.4105,-0.4125,-0.4103,-0.4107,-0.409,-0.411,-0.4166,-0.4083,-0.4083,-0.4099,-0.4221,-0.424,-0.4251,-0.4151,-0.4152,-0.4153,-0.4222,0,-0.4107,-0.4147,-0.4125,-0.4168,-0.4184,-0.4149,-0.417,-0.4169,-0.416,-0.4172,-0.4162,-0.4176,-0.4145,-0.4147,-0.4165,-0.4155,-0.419,-0.415,-0.4169,-0.417,-0.4171,-0.4262,-0.4282,-0.4347,-0.423,-0.4231,-0.4232,0,-0.4194,-0.4199,-0.4243,-0.4234,-0.424,-0.4259,-0.4264,-0.4276,-0.4274,-0.4266,-0.427,-0.4248,-0.4271,-0.4235,-0.4266,-0.4239,-0.4245,-0.4242,-0.4244,-0.4245,-0.4205,-0.4267,-0.4367,-0.4376,-0.4246,-0.4245,-0.4244,0,-0.4268,-0.4286,-0.4315,-0.4316,-0.4305,-0.432,-0.4316,-0.4312,-0.4318,-0.4323,-0.4327,-0.4335,-0.4339,-0.4346,-0.4327,-0.4302,-0.4361,-0.4323,-0.4355,-0.4355,-0.4369,-0.4369,-0.4472,-0.4373,-0.4373,-0.4373,-0.4372,0,-0.4349,-0.4377,-0.4348,-0.4365,-0.4396,-0.4371,-0.4402,-0.4395,-0.4391,-0.4407,-0.4377,-0.4393,-0.4367,-0.438,-0.4365,-0.4393,-0.4396,-0.439,-0.4386,-0.4393,-0.4393,-0.4397,-0.4392,-0.4375,-0.4375,-0.4374,-0.4374,0,-0.4437,-0.4418,-0.4447,-0.4434,-0.4432,-0.4455,-0.4444,-0.446,-0.4448,-0.4469,-0.4472,-0.4454,-0.4467,-0.4449,-0.4461,-0.4451,-0.4489,-0.4478,-0.449,-0.4487,-0.452,-0.4517,-0.4629,-0.4643,-0.4535,-0.4536,-0.4537,0,-0.449,-0.451,-0.45,-0.4508,-0.4505,-0.4519,-0.4525,-0.45,-0.4508,-0.4506,-0.4522,-0.4533,-0.4541,-0.4564,-0.4552,-0.4561,-0.455,-0.4589,-0.4551,-0.4558,-0.4551,-0.455,-0.4552,-0.4597,-0.4598,-0.4599,-0.46,0,-0.4585,-0.4574,-0.4583,-0.4589,-0.4597,-0.46,-0.4602,-0.461,-0.4584,-0.4594,-0.4607,-0.4613,-0.4624,-0.4636,-0.4641,-0.4638,-0.4615,-0.4612,-0.4619,-0.4627,-0.4633,-0.463,-0.4511,-0.4609,-0.4608,-0.4608,-0.4607,-0.4607,-0.4657,-0.4674,-0.4668,-0.4679,-0.4677,-0.4679,-0.4693,-0.4682,-0.4693,-0.47,-0.4685,-0.4702,-0.4698,-0.4703,-0.4702,-0.4715,-0.4698,-0.471,-0.4713,-0.4716,-0.4721,-0.4631,-0.4716,-0.4716,-0.4716,-0.4715,-0.4715,0,-0.4751,-0.4745,-0.4755,-0.4758,-0.4766,-0.4743,-0.4743,-0.4752,-0.4767,-0.4765,-0.4773,-0.4787,-0.4798,-0.4786,-0.4795,-0.4807,-0.4797,-0.481,-0.4809,-0.4809,-0.4736,-0.4728,-0.4819,-0.4819,-0.4819,-0.4819,-0.4819,-0.4819,-0.48,-0.4827,-0.4816,-0.4841,-0.4836,-0.4851,-0.4853,-0.4855,-0.4853,-0.4871,-0.4879,-0.4871,-0.4865,-0.4873,-0.4882,-0.4878,-0.4883,-0.49,-0.4893,-0.4824,-0.4814,-0.4805,-0.4797,-0.4901,-0.4901,-0.4965,-0.4965,-0.4966]}]]